TimeEST,TemperatureF,Dew PointF,Humidity,Sea Level PressureIn,VisibilityMPH,Wind Direction,Wind SpeedMPH,Gust SpeedMPH,PrecipitationIn,Events,Conditions,WindDirDegrees,DateUTC
12:02 AM,64.4,60.8,88,30.04,10.0,South,4.6,-,N/A,,Mostly Cloudy,180,2013-01-16 05:02:00
12:53 AM,64.9,62.1,90,30.04,10.0,South,9.2,-,N/A,,Overcast,190,2013-01-16 05:53:00
1:53 AM,64.9,62.1,90,30.03,10.0,South,5.8,-,N/A,,Overcast,190,2013-01-16 06:53:00
2:34 AM,64.4,62.6,94,30.03,10.0,South,8.1,-,N/A,,Overcast,190,2013-01-16 07:34:00
2:53 AM,64.9,62.1,90,30.02,10.0,South,6.9,-,N/A,,Overcast,170,2013-01-16 07:53:00
3:53 AM,64.9,62.1,90,30.02,10.0,SSW,8.1,-,N/A,,Overcast,210,2013-01-16 08:53:00
4:17 AM,66.2,62.6,88,30.01,10.0,SSW,6.9,-,N/A,,Overcast,210,2013-01-16 09:17:00
4:53 AM,64.9,62.1,90,29.99,10.0,SSE,5.8,-,N/A,,Overcast,160,2013-01-16 09:53:00
5:45 AM,62.6,60.8,94,30.00,9.0,Calm,Calm,-,N/A,,Mostly Cloudy,0,2013-01-16 10:45:00
5:53 AM,64.0,62.1,93,30.01,9.0,WSW,3.5,-,N/A,,Mostly Cloudy,250,2013-01-16 10:53:00
6:32 AM,64.4,62.6,94,30.01,9.0,South,5.8,-,N/A,,Overcast,180,2013-01-16 11:32:00
6:53 AM,64.9,63.0,93,30.02,10.0,SSW,12.7,-,N/A,,Overcast,200,2013-01-16 11:53:00
7:53 AM,64.9,63.0,93,30.04,10.0,SSW,9.2,-,N/A,,Overcast,200,2013-01-16 12:53:00
8:53 AM,66.0,63.0,90,30.05,10.0,South,11.5,-,N/A,,Mostly Cloudy,180,2013-01-16 13:53:00
9:53 AM,68.0,62.1,81,30.06,10.0,South,11.5,-,N/A,,Mostly Cloudy,190,2013-01-16 14:53:00
10:53 AM,72.0,63.0,73,30.05,10.0,SSW,6.9,18.4,0.00,,Mostly Cloudy,210,2013-01-16 15:53:00
11:53 AM,75.0,63.0,66,30.01,10.0,South,15.0,20.7,N/A,,Mostly Cloudy,190,2013-01-16 16:53:00
12:00 PM,75.2,62.6,65,30.02,10.0,SW,12.7,20.7,N/A,,Mostly Cloudy,220,2013-01-16 17:00:00
12:53 PM,77.0,63.0,62,29.99,10.0,South,16.1,21.9,N/A,,Mostly Cloudy,190,2013-01-16 17:53:00
1:53 PM,78.1,63.0,60,29.97,10.0,SSW,12.7,-,N/A,,Mostly Cloudy,200,2013-01-16 18:53:00
3:53 PM,79.0,62.1,56,29.94,10.0,South,15.0,-,N/A,,Scattered Clouds,190,2013-01-16 20:53:00
4:53 PM,77.0,62.1,60,29.95,10.0,SSW,8.1,-,N/A,,Mostly Cloudy,200,2013-01-16 21:53:00
5:53 PM,75.0,62.1,64,29.96,10.0,South,12.7,-,N/A,,Overcast,180,2013-01-16 22:53:00
6:53 PM,73.0,64.0,73,29.98,10.0,SSW,10.4,-,0.00,,Overcast,200,2013-01-16 23:53:00
7:53 PM,72.0,64.0,76,29.99,10.0,SSW,11.5,-,0.00,,Overcast,200,2013-01-17 00:53:00
8:45 PM,69.8,64.4,83,30.01,10.0,WNW,9.2,-,0.00,Rain,Light Rain,290,2013-01-17 01:45:00
8:53 PM,69.1,64.0,84,30.01,10.0,WNW,9.2,-,0.00,,Overcast,290,2013-01-17 01:53:00
9:27 PM,66.2,64.4,94,30.01,2.5,WSW,5.8,-,0.06,Rain,Heavy Rain,240,2013-01-17 02:27:00
9:35 PM,66.2,64.4,94,30.01,1.8,WSW,3.5,-,0.09,Rain,Light Rain,240,2013-01-17 02:35:00
9:38 PM,66.2,64.4,94,30.01,4.0,West,4.6,-,0.09,Rain,Light Rain,260,2013-01-17 02:38:00
9:53 PM,66.9,66.0,97,30.00,10.0,Calm,Calm,-,0.09,Rain,Light Rain,0,2013-01-17 02:53:00
10:53 PM,66.0,64.9,96,29.99,10.0,Calm,Calm,-,0.02,,Overcast,0,2013-01-17 03:53:00
11:10 PM,66.2,64.4,94,29.99,1.8,Calm,Calm,-,0.05,Rain,Heavy Rain,0,2013-01-17 04:10:00
11:17 PM,66.2,64.4,94,29.99,2.5,SSW,3.5,-,0.06,Rain,Rain,200,2013-01-17 04:17:00
11:26 PM,66.2,64.4,94,29.99,6.0,Calm,Calm,-,0.06,Rain,Light Rain,0,2013-01-17 04:26:00
11:34 PM,66.2,64.4,94,29.99,2.5,Calm,Calm,-,0.09,Rain,Light Rain,0,2013-01-17 04:34:00
11:40 PM,66.2,64.4,94,29.99,1.8,Calm,Calm,-,0.10,Rain,Light Rain,0,2013-01-17 04:40:00
11:43 PM,66.2,64.4,94,29.99,3.0,Calm,Calm,-,0.10,Rain,Light Rain,0,2013-01-17 04:43:00
11:53 PM,66.0,64.9,96,29.99,5.0,Calm,Calm,-,0.10,Rain,Light Rain,0,2013-01-17 04:53:00